|  Orbital Elements
Epoch 2008 Apr. 4.0 TT = JDT 2454560.5
T 2008 Apr. 21.69746 TT                                 MPC
q   2.0507803            (2000.0)            P               Q
z  -0.0006238      Peri.   23.58687     +0.27371735     +0.92053891
 +/-0.0000085      Node   263.25250     -0.92108006     +0.16744000
e   1.0012792      Incl.   16.30006     -0.27693019     +0.35294752
From 80 observations 2007 Apr. 18-2008 Sept. 28, mean residual 0".6.
 
 |